FALCON 9 DEB (47183 NORAD) Tracking and Keplerian Element Data
This shows tracking and keplerian element data for the satellite.
Feedback or suggestion? Click here.
Element | Value |
Catalog | 47183 |
Name | FALCON 9 DEB |
Epoch Orbit | 398 |
Epoch Day | 351.83641416 |
Epoch Year | 2020 |
RAAN | 240.9679 |
Inclination | 53.0313 |
Eccentricity | 0.0018368 |
Argument of Perigee | 136.7983 |
Mean Anonmoly | 223.4508 |
Mean Motion | 16.40198609 |
Decay Rate | 0.06310742 |
L1 | 1 47183U 20088BP 20351.83641416 .06310742 12201-4 36646-3 0 9996 |
L2 | 2 47183 53.0313 240.9679 0018368 136.7983 223.4508 16.40198609 3988 |
Live tracking and technical data element details for FALCON 9 DEB (NORAD 47183). FALCON 9 DEB can be tracked NOW for your location showing map with azimuth and elevation plus other details from your city location.
Track the satellite on the map from your city or location and see movement details for azimuth, elevation, latitude, longitude, range, height, and movement on the map or in text.
IsCatalogInMostPopularTable: catalog: 47183, numindb: 43
Update: records affected: 1
GetName: 47183 FALCON 9 DEB
Hit Count: updated at: Fri, 05 Mar 2021 06:18:40 GMT